Location: Unspecified
(22.6800°N, 112.2000°E)
Time: 15:42:56
(UTC+08:00)

S-56A Canister/Altair - Pass Details

Date: 31 July 2021
Orbit: 632 x 2500 km, 38.9° (Epoch: 24 September)

Event Time Altitude Azimuth Distance (km) Brightness Sun altitude
Rises 22:06:27 0° 302° (WNW) 6,063 13.1 -35.0°
Reaches altitude 10° 22:10:41 10° 302° (WNW) 4,913 12.3 -35.7°
Maximum altitude 22:24:10 78° 218° (SW) 1,847 9.1 -37.8°
Enters shadow 22:24:21 78° 209° (SSW) 1,840 9.1 -37.8°
Drops below altitude 10° 22:33:13 10° 133° (SE) 3,419 - -39.1°
Sets 22:35:40 0° 132° (SE) 4,176 - -39.5°
